Weather History for Trang, Thailand

Change the Weather History Date:

Saturday, March 29, 2014

  Actual Average Record
Temperature  
Mean Temperature 87 °F -  
Max Temperature 100 °F 95 °F - ()
Min Temperature 74 °F 74 °F - ()
Cooling Degree Days 22    
Growing Degree Days 37 (Base 50)    
Moisture  
Dew Point 72 °F    
Average Humidity 57    
Maximum Humidity 100    
Minimum Humidity 29    
Precipitation  
Precipitation 0.00 in 0.15 in - ()
Sea Level Pressure  
Sea Level Pressure 29.77 in    
Wind  
Wind Speed 4 mph ()    
Max Wind Speed 13 mph    
Max Gust Speed -    
Visibility 6.1 miles    
Events      
T = Trace of Precipitation, MM = Missing Value Source: Averaged Metar Reports

Daily Weather History Graph

Daily Weather History Graph

Search for Another Location

Airport:

Trip Planner

Search our weather history database for the weather conditions in past years. The results will help you decide how hot, cold, wet, or windy it might be!

Date:

Astronomy

Mar. 29, 2014 Rise Set
Actual Time 6:21 AM ICT 6:31 PM ICT
Civil Twilight 6:00 AM ICT 6:52 PM ICT
Nautical Twilight 5:36 AM ICT 7:16 PM ICT
Astronomical Twilight 5:11 AM ICT 7:41 PM ICT
Moon 4:50 AM ICT (3/29) 5:13 PM ICT (3/29)
Length of Visible Light 12h 51m
Length of Day
12h 10m
Waning Crescent, 3% of the Moon is Illuminated
Mar 29
Waning Crescent
Mar 31
New
Apr 7
First Quarter
Apr 15
Full
Apr 22
Last Quarter

Hourly Weather History & Observations

Time (ICT) Temp. Heat Index Dew Point Humidity Pressure Visibility Wind Dir Wind Speed Gust Speed Precip Events Conditions
1:00 AM 80 °F - 74 °F 77% 29.82 in 6 mi Calm Calm - -   Scattered Clouds
4:00 AM 78 °F - 74 °F 84% 29.78 in 5 mi Calm Calm - -   Mist
7:00 AM 75 °F - 73 °F 91% 29.81 in 3 mi Calm Calm - -   Mist
7:00 AM 75.2 °F - 75.2 °F 100% 29.77 in 3.1 mi Calm Calm - N/A   Mostly Cloudy
8:00 AM 82.4 °F 89.5 °F 75.2 °F 79% 29.80 in 4.3 mi Calm Calm - N/A   Mostly Cloudy
9:00 AM 87.8 °F 95.6 °F 73.4 °F 62% 29.80 in 6.2 mi NNE 4.6 mph - N/A   Scattered Clouds
10:00 AM 92 °F - 74 °F 47% 29.86 in 7 mi ENE 4.6 mph - -   Scattered Clouds
10:00 AM 91.4 °F 98.4 °F 71.6 °F 52% 29.83 in 6.2 mi East 9.2 mph - N/A   Scattered Clouds
11:00 AM 91.4 °F 98.4 °F 71.6 °F 52% 29.83 in 6.2 mi East 9.2 mph - N/A   Mostly Cloudy
12:00 PM 95.0 °F 101.3 °F 69.8 °F 44% 29.80 in 6.2 mi NE 6.9 mph - N/A   Scattered Clouds
1:00 PM 96 °F - 72 °F 36% 29.79 in 9 mi NNE 6.9 mph - -   Partly Cloudy
1:00 PM 95.0 °F 101.3 °F 69.8 °F 44% 29.74 in 6.2 mi NE 8.1 mph - N/A   Scattered Clouds
2:00 PM 96.8 °F 101.8 °F 68.0 °F 39% 29.71 in 6.2 mi ENE 10.4 mph - N/A   Scattered Clouds
3:00 PM 98.6 °F 102.8 °F 66.2 °F 35% 29.68 in 6.2 mi East 12.7 mph - N/A   Scattered Clouds
4:00 PM 99 °F - 70 °F 29% 29.68 in 9 mi NE 6.9 mph - -   Scattered Clouds
4:00 PM 96.8 °F 101.8 °F 68.0 °F 39% 29.65 in 6.2 mi NE 8.1 mph - N/A   Scattered Clouds
5:00 PM 93.2 °F 102.4 °F 73.4 °F 52% 29.65 in 6.2 mi SW 4.6 mph - N/A   Scattered Clouds
7:00 PM 88 °F - 73 °F 53% 29.72 in 7 mi NE 11.5 mph - -   Scattered Clouds
10:00 PM 83 °F - 75 °F 71% 29.84 in 6 mi ENE 4.6 mph - -   Scattered Clouds